Regional Weather Roundup
Issued by NWS Little Rock, AR

Home | Current Version | Previous Version | Graphics & Text | Print | Product List | Glossary On
Versions: 1 2 3 4 5 6 7 8 9 10 11 12 13 14 15 16 17 18 19 20 21 22 23 24 25 26 27 28 29 30 31 32 33 34 35 36 37 38 39 40 41 42 43 44 45 46 47 48 49 50
000
ASUS44 KLZK 241705
RWRLZK

WEATHER ROUNDUP FOR ARKANSAS
NATIONAL WEATHER SERVICE LITTLE ROCK AR
1200 PM CDT THU JUL 24 2014

NOTE: "FAIR" INDICATES FEW OR NO CLOUDS BELOW 12,000 FEET WITH NO
SIGNIFICANT WEATHER AND/OR OBSTRUCTIONS TO VISIBILITY.

ARZ001-003-010-029-241800-
NORTHWEST ARKANSAS

CITY           SKY/WX    TMP DP  RH WIND       PRES   REMARKS
FAYETTEVILLE   CLOUDY    74  69  85 VRB3      30.14S
FORT SMITH     CLOUDY    80  70  71 E10       30.10S
HARRISON       SUNNY     77  57  50 E8        30.16S
BENTONVILLE      N/A    N/A N/A N/A MISG        N/A
ROGERS         MOSUNNY   79  67  66 E7        30.14S
SILOAM SPGS    CLOUDY    75  64  69 S8        30.14S
HIGHFILL       MOSUNNY   80  69  69 E7        30.13S
$$

ARZ004-005-016-241800-
NORTH CENTRAL ARKANSAS

CITY           SKY/WX    TMP DP  RH WIND       PRES   REMARKS
BATESVILLE     MOSUNNY   79  57  47 SE3       30.11F
FLIPPIN        SUNNY     77  57  50 NE5       30.14F
MTN HOME       SUNNY     76  58  53 NE5       30.13F
$$

ARZ040-041-241800-
WEST CENTRAL ARKANSAS

CITY           SKY/WX    TMP DP  RH WIND       PRES   REMARKS
MENA           CLOUDY    81  72  74 E6        30.12S
MOUNT IDA      CLOUDY    77  69  76 E7        30.09F
$$

ARZ009-017-025-026-028-241800-
NORTHEAST ARKANSAS

CITY           SKY/WX    TMP DP  RH WIND       PRES   REMARKS
CORNING          N/A     75  55  50 N10       30.11F
JONESBORO      SUNNY     77  56  48 N8        30.09S
NEWPORT        SUNNY     76  61  59 NE10G17   30.12S
WALNUT RIDGE   SUNNY     77  57  50 N10       30.10F
BLYTHEVILLE    SUNNY     76  61  59 N15       30.09S
NW BLYTHEVILLE SUNNY     75  54  46 N14       30.08
$$

ARZ022-023-033-042-044-241800-
CENTRAL ARKANSAS

CITY           SKY/WX    TMP DP  RH WIND       PRES   REMARKS
LITTLE ROCK    CLOUDY    78  69  73 NE6       30.09F
N LITTLE ROCK  CLOUDY    79  71  76 E7        30.09F
JACKSONVILLE   PTSUNNY   79  68  69 NE8       30.09F
SEARCY         SUNNY     79  60  51 N10       30.11F
HOT SPRINGS    CLOUDY    76  70  82 E7        30.10F
RUSSELLVILLE   MOSUNNY   80  69  69 VRB6      30.10F
CLINTON        CLOUDY    79  61  53 CALM      30.12F
$$

ARZ036-241800-
EAST ARKANSAS

CITY           SKY/WX    TMP DP  RH WIND       PRES   REMARKS
WEST MEMPHIS   SUNNY     80  58  46 N15       30.07R
$$

ARZ050-053-066-070-073-241800-
SOUTHWEST ARKANSAS

CITY           SKY/WX    TMP DP  RH WIND       PRES   REMARKS
ARKADELPHIA    CLOUDY    77  73  87 E6        30.10S
CAMDEN         CLOUDY    81  70  69 N6        30.07S
TEXARKANA      CLOUDY    74  70  87 NE6       30.09R
EL DORADO      MOSUNNY   81  71  71 VRB5      30.07S HX  85
DE QUEEN       SUNNY     81  71  71 E8        30.07  HX  85
$$

ARZ056-057-069-241800-
SOUTHEAST ARKANSAS

CITY           SKY/WX    TMP DP  RH WIND       PRES   REMARKS
PINE BLUFF     CLOUDY    77  71  82 N8        30.08S
STUTTGART      MOSUNNY   79  68  69 NE10      30.09S
MONTICELLO     SUNNY     83  69  62 VRB5      30.06F HX  86

$$





USA.gov is the U.S. government's official web portal to all federal, state and local government web resources and services.